Regional Weather Roundup
Issued by NWS Sterling, VA

Home | Current Version | Previous Version | Text Only | Print | Product List | Glossary On
Versions: 1 2 3 4 5 6 7 8 9 10 11 12 13 14 15 16 17 18 19 20 21 22 23 24 25 26 27 28 29 30 31 32 33 34 35 36 37 38 39 40 41 42 43 44 45 46 47 48 49 50
000
ASUS41 KLWX 201310
RWRLWX

REGIONAL WEATHER ROUNDUP
NATIONAL WEATHER SERVICE BALTIMORE MD/WASHINGTON DC
800 AM EST SAT DEC 20 2014

Note: "FAIR" indicates few or no clouds below 12,000 feet
with no significant weather and/or obstructions to visibility.
 TC=TEMPERATURE CELSIUS

 * =Non NWS site. Station does not report precipitation (e.g. rain,
    snow, etc.), thunder, or fog.

DCZ001-MDZ009-015-VAZ040>042-051-053>054-201400-
WASHINGTON METRO

CITY           SKY/WX    TMP DP  RH WIND       PRES   REMARKS
WASHINGTON NAT MOCLDY    32  20  61 N7        30.32R
DULLES         CLOUDY    26  20  77 N6        30.29F
ANDREWS AFB    CLEAR     25  20  82 N5        30.30R
FT BELVOIR     CLOUDY    23  20  91 SW2       30.30F
QUANTICO       CLOUDY    26  22  84 NW6       30.34R
COLLEGE PARK*  MOCLDY    27  23  86 CALM      30.30S
LEESBURG*      CLOUDY    30  25  80 N3        30.30F
MANASSAS*      CLEAR     21  21 100 CALM      30.31R
GAITHERSBURG*  MOCLDY    21  18  86 CALM      30.32S

$$

MDZ006>007-011-014-201400-
BALTIMORE METRO

CITY           SKY/WX    TMP DP  RH WIND       PRES   REMARKS
BWI AIRPORT    MOCLDY    27  20  75 NW3       30.30R
MD SCIENCE CTR   N/A     31  20  63 MISG      30.30R
MARTIN STATE   PTCLDY    28  23  80 NW5       30.31S
ANNAPOLIS      PTCLDY    32  23  69 NW8       30.31R WCI  25

$$

MDZ012-015-019>023-201400-
MARYLAND EASTERN SHORE

CITY           SKY/WX    TMP DP  RH WIND       PRES   REMARKS
OCEAN CITY     CLEAR     27  22  81 NW5       30.30R
SALISBURY      CLEAR     28  22  78 CALM      30.30R
BAY BRIDGE AP*   N/A     32  23  69 NW6       30.31R
CAMBRIDGE*     CLEAR     32  27  80 N5        30.30S
EASTON*        CLEAR     30  27  86 CALM      30.34R

$$

MDZ017>025-201400-
SOUTHERN MARYLAND

CITY           SKY/WX    TMP DP  RH WIND       PRES   REMARKS
PATUXENT RIVER MOCLDY    31  21  66 N9        30.30S WCI  23
ST INIGOES     PTCLDY    29  20  69 CALM      30.30S
LEONARDTOWN*   PTCLDY    28  21  74 CALM      30.32R

$$

MDZ003>005-201400-
NORTH CENTRAL MARYLAND

CITY           SKY/WX    TMP DP  RH WIND       PRES   REMARKS
FREDERICK*     CLEAR     23  19  86 CALM      30.34R
HAGERSTOWN APT MOCLDY    25  18  74 NE3       30.27F
WESTMINSTER*   MOCLDY    25  19  80 CALM      30.26F

$$

MDZ501>502-201400-
WESTERN MARYLAND

CITY           SKY/WX    TMP DP  RH WIND       PRES   REMARKS
OAKLAND*       CLOUDY    19 N/A N/A CALM      30.13F
CUMBERLAND*    CLOUDY    27  21  80 CALM      30.32R

$$

VAZ025>031-201400-
SHENANDOAH VALLEY

CITY           SKY/WX    TMP DP  RH WIND       PRES   REMARKS
WINCHESTER*    CLOUDY    25  19  80 CALM      30.28S
FRONT ROYAL*   FAIR      23  21  93 S3        30.29R
LURAY*         FAIR      27  27 100 CALM      30.28S
NEW MARKET*    FAIR      22  20  91 CALM      30.28S
STAUNTON*      CLOUDY    24  21  86 CALM      30.28S
WAYNESBORO*    FAIR      24  21  89 CALM      30.24S

$$

WVZ021-048>050-054>055-201400-
EASTERN WEST VIRGINIA PANHANDLE

CITY           SKY/WX    TMP DP  RH WIND       PRES   REMARKS
MARTINSBURG    CLOUDY    22  17  81 CALM      30.29R
PETERSBURG*    CLOUDY    23  22  94 CALM      30.29R

$$

VAZ036>039-050-201400-
CENTRAL FOOTHILLS

CITY           SKY/WX    TMP DP  RH WIND       PRES   REMARKS
CHARLOTTESVILL CLOUDY    28  23  81 S7        30.30R
CULPEPER*      CLOUDY    25  21  86 CALM      30.32R
ORANGE*        CLOUDY    27  25  93 CALM      30.33R
GORDONSVILLE*  FAIR      25  23  91 CALM      30.30R
WARRENTON*     FAIR      24  24 100 CALM      30.31R

$$

VAZ055>057-201400-
NORTH AND CENTRAL PIEDMONT

CITY           SKY/WX    TMP DP  RH WIND       PRES   REMARKS
FREDERICKSBRG* CLOUDY    28  25  89 W5        30.33R
STAFFORD*      CLOUDY    22  22 100 CALM      30.36R

$$

NCZ024-NYZ072-PAZ021-071-VAZ022-071-201400-
OTHER REGIONAL OBSERVATIONS

CITY           SKY/WX    TMP DP  RH WIND       PRES   REMARKS
NEW YORK CITY  CLOUDY    31  19  61 VRB5      30.28S
PHILADELPHIA   CLOUDY    33  21  61 NW8       30.30R WCI  26
PITTSBURGH     CLOUDY    26  19  74 NE6       30.26S
ROANOKE        CLOUDY    31  23  72 SE5       30.28R
RICHMOND       CLOUDY    32  23  69 NW5       30.32R
RALEIGH        CLOUDY    35  25  66 NE6       30.29S

$$

ANZ530>537-201400-
MARINE OBSERVATIONS

STATION/POSITION TIME  TEMP    WIND        PRES
                       AIR SEA DIR/SP/G
                 (UTC) (F)     (DEG/KT/KT) (MB)
THOMAS PT LIGHT  1300   30 40  310/  7/  8 1027.2R
BALT KEY BRIDGE  1300   32     320/ 11/ 12 1025.9F
COVE POINT       1300   32     350/ 10/ 12 1026.0R
LEWISETTA        1300   31 40  320/  4/  5 1025.9F
SOLOMONS ISLAND  1300      42                N/A

$$



USA.gov is the U.S. government's official web portal to all federal, state and local government web resources and services.